Time,TemperatureF,DewpointF,PressureIn,WindDirection,WindDirectionDegrees,WindSpeedMPH,WindSpeedGustMPH,Humidity,HourlyPrecipIn,Conditions,Clouds,dailyrainin,SoftwareType,DateUTC
2013-03-14 00:12:00,26.0,18.0,-100.00,WNW,290,10.0,13.0,71,0.00,,,-99.99,,2013-03-14 04:12:00,
2013-03-14 00:22:00,26.0,18.0,-100.00,WNW,290,10.0,14.0,71,0.00,,,-99.99,,2013-03-14 04:22:00,
2013-03-14 00:32:00,26.0,18.0,-100.00,West,280,9.0,11.0,71,0.00,,,-99.99,,2013-03-14 04:32:00,
2013-03-14 00:42:00,26.0,18.0,-100.00,West,280,9.0,11.0,71,0.00,,,-99.99,,2013-03-14 04:42:00,
2013-03-14 00:52:00,25.0,18.0,-100.00,WNW,285,7.0,12.0,72,0.00,,,-99.99,,2013-03-14 04:52:00,
2013-03-14 01:02:00,25.0,18.0,-100.00,WNW,285,8.0,11.0,72,0.00,,,-99.99,,2013-03-14 05:02:00,
2013-03-14 01:12:00,25.0,18.0,-100.00,WNW,290,10.0,14.0,72,0.00,,,-99.99,,2013-03-14 05:12:00,
2013-03-14 01:22:00,25.0,18.0,-100.00,WNW,290,9.0,12.0,72,0.00,,,-99.99,,2013-03-14 05:22:00,
2013-03-14 01:33:00,25.0,18.0,-100.00,West,280,9.0,13.0,72,0.00,,,-99.99,,2013-03-14 05:33:00,
2013-03-14 01:42:00,25.0,18.0,-100.00,West,280,9.0,13.0,72,0.00,,,-99.99,,2013-03-14 05:42:00,
2013-03-14 01:52:00,25.0,17.0,-100.00,West,275,9.0,11.0,73,0.00,,,-99.99,,2013-03-14 05:52:00,
2013-03-14 02:02:00,24.0,17.0,-100.00,West,275,7.0,11.0,74,0.00,,,-99.99,,2013-03-14 06:02:00,
2013-03-14 02:12:00,24.0,17.0,-100.00,West,275,8.0,10.0,74,0.00,,,-99.99,,2013-03-14 06:12:00,
2013-03-14 02:22:00,24.0,17.0,-100.00,West,275,8.0,10.0,75,0.00,,,-99.99,,2013-03-14 06:22:00,
2013-03-14 02:33:00,24.0,17.0,-100.00,West,275,8.0,10.0,75,0.00,,,-99.99,,2013-03-14 06:33:00,
2013-03-14 02:42:00,24.0,17.0,-100.00,West,275,8.0,10.0,75,0.00,,,-99.99,,2013-03-14 06:42:00,
2013-03-14 02:52:00,24.0,18.0,-100.00,West,275,6.0,9.0,77,0.00,,,-99.99,,2013-03-14 06:52:00,
2013-03-14 03:02:00,23.0,17.0,-100.00,West,275,6.0,8.0,77,0.00,,,-99.99,,2013-03-14 07:02:00,
2013-03-14 03:12:00,23.0,18.0,-100.00,West,270,7.0,9.0,78,0.00,,,-99.99,,2013-03-14 07:12:00,
2013-03-14 03:22:00,24.0,18.0,-100.00,West,265,6.0,9.0,78,0.00,,,-99.99,,2013-03-14 07:22:00,
2013-03-14 03:32:00,24.0,18.0,-100.00,West,260,6.0,8.0,78,0.00,,,-99.99,,2013-03-14 07:32:00,
2013-03-14 03:42:00,24.0,18.0,-100.00,West,265,6.0,8.0,78,0.00,,,-99.99,,2013-03-14 07:42:00,
2013-03-14 03:52:00,24.0,18.0,-100.00,West,260,6.0,9.0,77,0.00,,,-99.99,,2013-03-14 07:52:00,
2013-03-14 04:02:00,24.0,18.0,-100.00,West,265,7.0,9.0,77,0.00,,,-99.99,,2013-03-14 08:02:00,
2013-03-14 04:12:00,24.0,18.0,-100.00,West,270,7.0,11.0,76,0.00,,,-99.99,,2013-03-14 08:12:00,
2013-03-14 04:22:00,24.0,17.0,-100.00,West,265,7.0,9.0,75,0.00,,,-99.99,,2013-03-14 08:22:00,
2013-03-14 04:32:00,24.0,17.0,-100.00,West,260,7.0,9.0,75,0.00,,,-99.99,,2013-03-14 08:32:00,
2013-03-14 04:42:00,24.0,18.0,-100.00,WSW,255,7.0,9.0,76,0.00,,,-99.99,,2013-03-14 08:42:00,
2013-03-14 04:52:00,24.0,17.0,-100.00,WSW,250,7.0,9.0,76,0.00,,,-99.99,,2013-03-14 08:52:00,
2013-03-14 05:02:00,24.0,17.0,-100.00,West,260,7.0,9.0,76,0.00,,,-99.99,,2013-03-14 09:02:00,
2013-03-14 05:12:00,24.0,18.0,-100.00,West,260,7.0,9.0,76,0.00,,,-99.99,,2013-03-14 09:12:00,
2013-03-14 05:22:00,24.0,17.0,-100.00,WSW,255,7.0,10.0,76,0.00,,,-99.99,,2013-03-14 09:22:00,
2013-03-14 05:32:00,24.0,18.0,-100.00,WSW,255,6.0,7.0,77,0.00,,,-99.99,,2013-03-14 09:32:00,
2013-03-14 05:42:00,24.0,18.0,-100.00,WSW,250,6.0,7.0,77,0.00,,,-99.99,,2013-03-14 09:42:00,
2013-03-14 05:52:00,24.0,18.0,-100.00,WSW,250,6.0,9.0,78,0.00,,,-99.99,,2013-03-14 09:52:00,
2013-03-14 06:02:00,24.0,18.0,-100.00,WSW,250,6.0,7.0,79,0.00,,,-99.99,,2013-03-14 10:02:00,
2013-03-14 06:12:00,24.0,19.0,-100.00,WSW,240,6.0,9.0,80,0.00,,,-99.99,,2013-03-14 10:12:00,
2013-03-14 06:22:00,23.0,19.0,-100.00,SW,230,6.0,8.0,81,0.00,,,-99.99,,2013-03-14 10:22:00,
2013-03-14 06:32:00,23.0,19.0,-100.00,WSW,245,6.0,7.0,83,0.00,,,-99.99,,2013-03-14 10:32:00,
2013-03-14 06:42:00,23.0,19.0,-100.00,WSW,245,7.0,7.0,83,0.00,,,-99.99,,2013-03-14 10:42:00,
2013-03-14 06:52:00,23.0,19.0,-100.00,WSW,245,7.0,7.0,83,0.00,,,-99.99,,2013-03-14 10:52:00,
2013-03-14 07:02:00,23.0,19.0,-100.00,WSW,245,6.0,8.0,83,0.00,,,-99.99,,2013-03-14 11:02:00,
2013-03-14 07:12:00,23.0,19.0,-100.00,WSW,245,6.0,8.0,84,0.00,,,-99.99,,2013-03-14 11:12:00,
2013-03-14 07:22:00,23.0,19.0,-100.00,WSW,245,6.0,9.0,84,0.00,,,-99.99,,2013-03-14 11:22:00,
2013-03-14 07:33:00,23.0,19.0,-100.00,WSW,245,6.0,9.0,84,0.00,,,-99.99,,2013-03-14 11:33:00,
2013-03-14 07:42:00,23.0,19.0,-100.00,WSW,240,6.0,8.0,85,0.00,,,-99.99,,2013-03-14 11:42:00,
2013-03-14 07:52:00,23.0,19.0,-100.00,WSW,245,7.0,9.0,85,0.00,,,-99.99,,2013-03-14 11:52:00,
2013-03-14 08:02:00,23.0,19.0,-100.00,WSW,240,7.0,9.0,85,0.00,,,-99.99,,2013-03-14 12:02:00,
2013-03-14 08:12:00,23.0,19.0,-100.00,WSW,240,7.0,9.0,84,0.00,,,-99.99,,2013-03-14 12:12:00,
2013-03-14 08:22:00,23.0,19.0,-100.00,WSW,240,7.0,9.0,84,0.00,,,-99.99,,2013-03-14 12:22:00,
2013-03-14 08:33:00,23.0,19.0,-100.00,WSW,250,7.0,9.0,83,0.00,,,-99.99,,2013-03-14 12:33:00,
2013-03-14 08:42:00,23.0,19.0,-100.00,WSW,250,7.0,9.0,83,0.00,,,-99.99,,2013-03-14 12:42:00,
2013-03-14 08:52:00,24.0,19.0,-100.00,WSW,250,6.0,9.0,82,0.00,,,-99.99,,2013-03-14 12:52:00,
2013-03-14 09:02:00,24.0,19.0,-100.00,WSW,255,7.0,10.0,80,0.00,,,-99.99,,2013-03-14 13:02:00,
2013-03-14 09:12:00,25.0,19.0,-100.00,West,260,7.0,11.0,78,0.00,,,-99.99,,2013-03-14 13:12:00,
2013-03-14 09:22:00,26.0,20.0,-100.00,West,260,9.0,11.0,77,0.00,,,-99.99,,2013-03-14 13:22:00,
2013-03-14 09:32:00,26.0,20.0,-100.00,West,265,7.0,12.0,76,0.00,,,-99.99,,2013-03-14 13:32:00,
2013-03-14 09:42:00,27.0,20.0,-100.00,West,260,9.0,12.0,74,0.00,,,-99.99,,2013-03-14 13:42:00,
2013-03-14 09:52:00,28.0,21.0,-100.00,West,280,9.0,11.0,73,0.00,,,-99.99,,2013-03-14 13:52:00,
2013-03-14 10:02:00,28.0,20.0,-100.00,West,265,11.0,12.0,71,0.00,,,-99.99,,2013-03-14 14:02:00,
2013-03-14 10:12:00,29.0,21.0,-100.00,West,265,8.0,12.0,70,0.00,,,-99.99,,2013-03-14 14:12:00,
2013-03-14 10:22:00,30.0,21.0,-100.00,West,275,9.0,12.0,69,0.00,,,-99.99,,2013-03-14 14:22:00,
2013-03-14 10:32:00,30.0,21.0,-100.00,West,275,9.0,12.0,69,0.00,,,-99.99,,2013-03-14 14:32:00,
2013-03-14 10:42:00,32.0,22.0,-100.00,West,270,10.0,12.0,66,0.00,,,-99.99,,2013-03-14 14:42:00,
2013-03-14 10:52:00,32.0,22.0,-100.00,West,270,10.0,12.0,66,0.00,,,-99.99,,2013-03-14 14:52:00,
2013-03-14 11:02:00,32.0,22.0,-100.00,WSW,250,9.0,13.0,66,0.00,,,-99.99,,2013-03-14 15:02:00,
2013-03-14 11:12:00,33.0,23.0,-100.00,West,280,8.0,12.0,64,0.00,,,-99.99,,2013-03-14 15:12:00,
2013-03-14 11:22:00,33.0,22.0,-100.00,West,260,9.0,12.0,64,0.00,,,-99.99,,2013-03-14 15:22:00,
2013-03-14 11:33:00,33.0,22.0,-100.00,West,265,9.0,13.0,64,0.00,,,-99.99,,2013-03-14 15:33:00,
2013-03-14 11:43:00,35.0,24.0,-100.00,WNW,290,8.0,16.0,62,0.00,,,-99.99,,2013-03-14 15:43:00,
2013-03-14 11:52:00,35.0,23.0,-100.00,West,280,8.0,15.0,60,0.00,,,-99.99,,2013-03-14 15:52:00,
2013-03-14 12:03:00,36.0,23.0,-100.00,West,280,9.0,12.0,59,0.00,,,-99.99,,2013-03-14 16:03:00,
2013-03-14 12:12:00,37.0,23.0,-100.00,WNW,285,11.0,14.0,57,0.00,,,-99.99,,2013-03-14 16:12:00,
2013-03-14 12:23:00,37.0,23.0,-100.00,WNW,290,10.0,14.0,55,0.00,,,-99.99,,2013-03-14 16:23:00,
2013-03-14 12:32:00,38.0,23.0,-100.00,West,270,7.0,14.0,53,0.00,,,-99.99,,2013-03-14 16:32:00,
2013-03-14 12:42:00,36.0,21.0,-100.00,West,280,11.0,16.0,54,0.00,,,-99.99,,2013-03-14 16:42:00,
2013-03-14 12:52:00,37.0,23.0,-100.00,West,275,10.0,16.0,54,0.00,,,-99.99,,2013-03-14 16:52:00,
2013-03-14 13:02:00,37.0,22.0,-100.00,West,270,8.0,15.0,54,0.00,,,-99.99,,2013-03-14 17:02:00,
2013-03-14 13:12:00,37.0,22.0,-100.00,West,275,11.0,16.0,54,0.00,,,-99.99,,2013-03-14 17:12:00,
2013-03-14 13:23:00,37.0,22.0,-100.00,West,275,11.0,16.0,54,0.00,,,-99.99,,2013-03-14 17:23:00,
2013-03-14 13:33:00,36.0,20.0,-100.00,WSW,250,11.0,16.0,50,0.00,,,-99.99,,2013-03-14 17:33:00,
2013-03-14 13:42:00,38.0,21.0,-100.00,WSW,255,7.0,17.0,50,0.00,,,-99.99,,2013-03-14 17:42:00,
2013-03-14 13:52:00,39.0,22.0,-100.00,West,265,8.0,13.0,49,0.00,,,-99.99,,2013-03-14 17:52:00,
2013-03-14 14:03:00,39.0,22.0,-100.00,WSW,245,8.0,18.0,49,0.00,,,-99.99,,2013-03-14 18:03:00,
2013-03-14 14:12:00,39.0,21.0,-100.00,West,270,9.0,16.0,49,0.00,,,-99.99,,2013-03-14 18:12:00,
2013-03-14 14:23:00,39.0,22.0,-100.00,WSW,250,9.0,14.0,49,0.00,,,-99.99,,2013-03-14 18:23:00,
2013-03-14 14:33:00,39.0,21.0,-100.00,West,265,10.0,18.0,48,0.00,,,-99.99,,2013-03-14 18:33:00,
2013-03-14 14:52:00,40.0,22.0,-100.00,WNW,290,12.0,18.0,48,0.00,,,-99.99,,2013-03-14 18:52:00,
2013-03-14 15:03:00,41.0,22.0,-100.00,West,280,10.0,17.0,46,0.00,,,-99.99,,2013-03-14 19:03:00,
2013-03-14 15:12:00,40.0,22.0,-100.00,WSW,255,11.0,15.0,46,0.00,,,-99.99,,2013-03-14 19:12:00,
2013-03-14 15:23:00,41.0,22.0,-100.00,WNW,285,13.0,15.0,46,0.00,,,-99.99,,2013-03-14 19:23:00,
2013-03-14 15:32:00,41.0,22.0,-100.00,WNW,285,13.0,15.0,46,0.00,,,-99.99,,2013-03-14 19:32:00,
2013-03-14 15:42:00,41.0,22.0,-100.00,West,270,10.0,17.0,46,0.00,,,-99.99,,2013-03-14 19:42:00,
2013-03-14 15:52:00,41.0,22.0,-100.00,WSW,255,9.0,13.0,45,0.00,,,-99.99,,2013-03-14 19:52:00,
2013-03-14 16:02:00,41.0,22.0,-100.00,WNW,290,10.0,14.0,46,0.00,,,-99.99,,2013-03-14 20:02:00,
2013-03-14 16:12:00,41.0,22.0,-100.00,WSW,255,12.0,16.0,46,0.00,,,-99.99,,2013-03-14 20:12:00,
2013-03-14 16:22:00,41.0,22.0,-100.00,WSW,245,12.0,16.0,46,0.00,,,-99.99,,2013-03-14 20:22:00,
2013-03-14 16:32:00,41.0,22.0,-100.00,WSW,255,9.0,20.0,47,0.00,,,-99.99,,2013-03-14 20:32:00,
2013-03-14 16:42:00,42.0,23.0,-100.00,West,280,15.0,19.0,46,0.00,,,-99.99,,2013-03-14 20:42:00,
2013-03-14 16:52:00,42.0,23.0,-100.00,West,270,9.0,16.0,45,0.00,,,-99.99,,2013-03-14 20:52:00,
2013-03-14 17:03:00,42.0,22.0,-100.00,West,280,15.0,19.0,44,0.00,,,-99.99,,2013-03-14 21:03:00,
2013-03-14 17:12:00,43.0,23.0,-100.00,WNW,285,11.0,16.0,44,0.00,,,-99.99,,2013-03-14 21:12:00,
2013-03-14 17:22:00,42.0,21.0,-100.00,WSW,250,11.0,16.0,43,0.00,,,-99.99,,2013-03-14 21:22:00,
2013-03-14 17:33:00,42.0,21.0,-100.00,WNW,285,12.0,17.0,43,0.00,,,-99.99,,2013-03-14 21:33:00,
2013-03-14 17:43:00,42.0,21.0,-100.00,West,270,12.0,16.0,41,0.00,,,-99.99,,2013-03-14 21:43:00,
2013-03-14 17:53:00,41.0,20.0,-100.00,WSW,255,14.0,18.0,41,0.00,,,-99.99,,2013-03-14 21:53:00,
2013-03-14 18:03:00,41.0,20.0,-100.00,WSW,255,14.0,18.0,42,0.00,,,-99.99,,2013-03-14 22:03:00,
2013-03-14 18:13:00,41.0,20.0,-100.00,WSW,250,12.0,19.0,42,0.00,,,-99.99,,2013-03-14 22:13:00,
2013-03-14 18:23:00,41.0,20.0,-100.00,West,265,11.0,16.0,42,0.00,,,-99.99,,2013-03-14 22:23:00,
2013-03-14 18:33:00,40.0,19.0,-100.00,West,280,9.0,16.0,42,0.00,,,-99.99,,2013-03-14 22:33:00,
2013-03-14 18:42:00,40.0,20.0,-100.00,West,260,9.0,13.0,43,0.00,,,-99.99,,2013-03-14 22:42:00,
2013-03-14 18:52:00,41.0,19.0,-100.00,West,265,9.0,16.0,42,0.00,,,-99.99,,2013-03-14 22:52:00,
2013-03-14 19:03:00,40.0,19.0,-100.00,WNW,285,11.0,14.0,42,0.00,,,-99.99,,2013-03-14 23:03:00,
2013-03-14 19:12:00,40.0,19.0,-100.00,West,270,13.0,15.0,42,0.00,,,-99.99,,2013-03-14 23:12:00,
2013-03-14 19:22:00,39.0,19.0,-100.00,West,280,8.0,13.0,43,0.00,,,-99.99,,2013-03-14 23:22:00,
2013-03-14 19:33:00,39.0,19.0,-100.00,WNW,285,6.0,10.0,44,0.00,,,-99.99,,2013-03-14 23:33:00,
2013-03-14 19:42:00,38.0,19.0,-100.00,West,280,6.0,9.0,45,0.00,,,-99.99,,2013-03-14 23:42:00,
2013-03-14 19:53:00,37.0,19.0,-100.00,West,270,6.0,9.0,46,0.00,,,-99.99,,2013-03-14 23:53:00,
2013-03-14 20:02:00,36.0,19.0,-100.00,WNW,285,6.0,6.0,48,0.00,,,-99.99,,2013-03-15 00:02:00,
2013-03-14 20:12:00,35.0,19.0,-100.00,West,280,4.0,6.0,52,0.00,,,-99.99,,2013-03-15 00:12:00,
2013-03-14 20:23:00,34.0,19.0,-100.00,West,280,4.0,5.0,54,0.00,,,-99.99,,2013-03-15 00:23:00,
2013-03-14 20:32:00,34.0,19.0,-100.00,West,275,4.0,5.0,54,0.00,,,-99.99,,2013-03-15 00:32:00,
2013-03-14 20:42:00,34.0,19.0,-100.00,West,275,4.0,6.0,55,0.00,,,-99.99,,2013-03-15 00:42:00,
2013-03-14 20:52:00,34.0,20.0,-100.00,West,260,5.0,6.0,54,0.00,,,-99.99,,2013-03-15 00:52:00,
2013-03-14 21:02:00,34.0,19.0,-100.00,WSW,255,4.0,5.0,54,0.00,,,-99.99,,2013-03-15 01:02:00,
2013-03-14 21:12:00,34.0,20.0,-100.00,SW,235,4.0,4.0,55,0.00,,,-99.99,,2013-03-15 01:12:00,
2013-03-14 21:22:00,33.0,20.0,-100.00,SW,225,6.0,6.0,58,0.00,,,-99.99,,2013-03-15 01:22:00,
2013-03-14 21:32:00,33.0,21.0,-100.00,SW,235,2.0,6.0,59,0.00,,,-99.99,,2013-03-15 01:32:00,
2013-03-14 21:42:00,33.0,20.0,-100.00,SW,235,3.0,3.0,59,0.00,,,-99.99,,2013-03-15 01:42:00,
2013-03-14 21:52:00,33.0,20.0,-100.00,SW,235,3.0,3.0,59,0.00,,,-99.99,,2013-03-15 01:52:00,
2013-03-14 22:12:00,32.0,22.0,-100.00,SW,230,6.0,6.0,65,0.00,,,-99.99,,2013-03-15 02:12:00,
2013-03-14 22:22:00,33.0,23.0,-100.00,SW,215,6.0,8.0,65,0.00,,,-99.99,,2013-03-15 02:22:00,
2013-03-14 22:32:00,33.0,23.0,-100.00,SW,220,6.0,8.0,65,0.00,,,-99.99,,2013-03-15 02:32:00,
2013-03-14 22:42:00,33.0,23.0,-100.00,SW,220,6.0,8.0,66,0.00,,,-99.99,,2013-03-15 02:42:00,
2013-03-14 22:52:00,33.0,23.0,-100.00,SW,220,7.0,9.0,66,0.00,,,-99.99,,2013-03-15 02:52:00,
2013-03-14 23:02:00,33.0,24.0,-100.00,SW,235,6.0,8.0,69,0.00,,,-99.99,,2013-03-15 03:02:00,
2013-03-14 23:12:00,33.0,24.0,-100.00,WSW,250,7.0,11.0,68,0.00,,,-99.99,,2013-03-15 03:12:00,
2013-03-14 23:22:00,33.0,24.0,-100.00,WSW,245,7.0,10.0,68,0.00,,,-99.99,,2013-03-15 03:22:00,
2013-03-14 23:33:00,33.0,24.0,-100.00,WSW,245,8.0,10.0,69,0.00,,,-99.99,,2013-03-15 03:33:00,
2013-03-14 23:43:00,33.0,24.0,-100.00,WSW,250,7.0,10.0,70,0.00,,,-99.99,,2013-03-15 03:43:00,
2013-03-14 23:52:00,33.0,24.0,-100.00,WSW,245,7.0,9.0,71,0.00,,,-99.99,,2013-03-15 03:52:00,